This is the latest recevied weather packets stored in our database for station/object PA2JOK. If no packets are shown the sender has not sent any weather packets the latest 10 day(s).
| Time | Temp. | Humidity | Pressure | Rain* | Wind** | Luminosity | Snow |
|---|---|---|---|---|---|---|---|
| 1777841283 | 12.78° C | 90% | 1010.7 hPa | 0 mm | - | - | - |
| 1777840382 | 13.33° C | 89% | 1011 hPa | 0 mm | - | - | - |
| 1777839482 | 13.33° C | 89% | 1010.9 hPa | 0 mm | - | - | - |
| 1777838583 | 13.33° C | 89% | 1010.7 hPa | 0 mm | - | - | - |
| 1777837683 | 13.33° C | 89% | 1010.6 hPa | 0 mm | - | - | - |
| 1777836783 | 13.33° C | 90% | 1010.3 hPa | 0.25 mm | - | - | - |
| 1777835882 | 13.89° C | 91% | 1010 hPa | 0.25 mm | - | - | - |
| 1777834982 | 13.89° C | 91% | 1009.9 hPa | 0.51 mm | - | - | - |
| 1777834083 | 13.89° C | 90% | 1009.8 hPa | 0.51 mm | - | - | - |
| 1777833183 | 14.44° C | 90% | 1009.9 hPa | 0.51 mm | - | - | - |
| 1777832282 | 14.44° C | 89% | 1009.8 hPa | 0.51 mm | - | - | - |
| 1777831382 | 15° C | 88% | 1009.8 hPa | 0.25 mm | - | - | - |
| 1777830482 | 15° C | 87% | 1009.9 hPa | 0.76 mm | - | - | - |
| 1777829582 | 15° C | 87% | 1009.5 hPa | 0.76 mm | - | - | - |
| 1777828682 | 15.56° C | 86% | 1009.5 hPa | 0.76 mm | - | - | - |
| 1777827784 | 15.56° C | 85% | 1009.3 hPa | 0.51 mm | - | - | - |
| 1777826883 | 16.11° C | 84% | 1009.6 hPa | 0 mm | - | - | - |
| 1777825982 | 16.11° C | 83% | 1009.4 hPa | 0 mm | - | - | - |
| 1777825084 | 16.11° C | 83% | 1009.4 hPa | 0 mm | - | - | - |
| 1777824183 | 16.11° C | 83% | 1009.3 hPa | 0.25 mm | - | - | - |
| 1777823284 | 16.11° C | 84% | 1009.2 hPa | 0.51 mm | - | - | - |
| 1777822382 | 16.11° C | 85% | 1009.1 hPa | 0.76 mm | - | - | - |
| 1777821484 | 16.11° C | 85% | 1009.4 hPa | 0.76 mm | - | - | - |
| 1777820582 | 16.11° C | 84% | 1009.4 hPa | 0.51 mm | - | - | - |
| 1777819683 | 16.11° C | 82% | 1009.3 hPa | 0.25 mm | - | - | - |
* Rain latest hour (hover to see other rain measurements)
** Current wind speed in m/s (hover to see current wind gust speed)